Green Bay, WI

12:15 PM CDT on April 26, 2017 (GMT -0500)
Austin Straubel International

Weather History for KGRB - March, 2014

Change the Weather History Date:

Saturday, March 1, 2014

  Actual Average Record
Temperature  
Mean Temperature 10 °F 25 °F  
Max Temperature 14 °F 33 °F 53 °F (1992)
Min Temperature 5 °F 17 °F -29 °F (1962)
Degree Days  
Heating Degree Days 55 40  
Month to date heating degree days 55 40  
Since 1 July heating degree days 6536 5880  
Cooling Degree Days 0 0  
Month to date cooling degree days 0 0  
Year to date cooling degree days 0 0  
Moisture  
Dew Point 0 °F    
Average Humidity 65    
Maximum Humidity 80    
Minimum Humidity 50    
Precipitation  
Precipitation 0.02 in 0.06 in 2.40 in (1888)
Month to date precipitation 0.02 0.06  
Year to date precipitation 2.81 2.30  
Snow  
Snow 0.30 in 0.40 in 24.00 in (1888)
Month to date snowfall 0.3 0.4  
Since 1 July snowfall 62.6 40.6  
Snow Depth 17.00 in    
Sea Level Pressure  
Sea Level Pressure 30.29 in    
Wind  
Wind Speed 10 mph (WNW)    
Max Wind Speed 15 mph    
Max Gust Speed 18 mph    
Visibility 8 miles    
Events Snow    
T = Trace of Precipitation, MM = Missing Value Source: NWS Daily Summary

Daily Weather History Graph

Daily Weather History Graph

Search for Another Location

Airport or City:

Trip Planner

Search our weather history database for the weather conditions in past years. The results will help you decide how hot, cold, wet, or windy it might be!

Date:

Astronomy

Mar. 01, 2014 Rise Set
Actual Time 6:29 AM CST 5:40 PM CST
Civil Twilight 6:00 AM CST 6:09 PM CST
Nautical Twilight 5:27 AM CST 6:43 PM CST
Astronomical Twilight 4:53 AM CST 7:17 PM CST
Moon 6:21 AM CST (3/1) 6:31 PM CST (3/1)
Length of Visible Light 12h 09m
Length of Day
11h 10m
New Moon, 0% of the Moon is Illuminated
Mar 1
New Moon
Mar 8
First Quarter
Mar 16
Full
Mar 23
Last Quarter
Mar 30
New

Hourly Weather History & Observations

Time (CST) Temp. Windchill Dew Point Humidity Pressure Visibility Wind Dir Wind Speed Gust Speed Precip Events Conditions
12:53 AM 14.0 °F 0.5 °F 7.0 °F 74% 30.09 in 10.0 mi NW 11.5 mph - 0.00 in   Overcast
1:53 AM 12.0 °F -1.3 °F 5.0 °F 73% 30.10 in 10.0 mi NW 10.4 mph - N/A   Overcast
2:53 AM 10.9 °F -3.4 °F 3.0 °F 70% 30.11 in 10.0 mi NW 11.5 mph - N/A   Overcast
3:53 AM 10.0 °F -0.9 °F 1.9 °F 70% 30.14 in 10.0 mi NW 6.9 mph - N/A   Overcast
4:53 AM 7.0 °F -4.5 °F -0.0 °F 73% 30.17 in 10.0 mi NW 6.9 mph - N/A   Mostly Cloudy
5:53 AM 7.0 °F -6.6 °F -2.0 °F 67% 30.19 in 10.0 mi NNW 9.2 mph - N/A   Mostly Cloudy
6:53 AM 6.1 °F -7.8 °F -2.0 °F 69% 30.23 in 10.0 mi NW 9.2 mph - N/A   Overcast
7:53 AM 6.1 °F -10.2 °F -4.0 °F 63% 30.27 in 10.0 mi NNW 12.7 mph - N/A   Clear
8:53 AM 7.0 °F -9.1 °F -4.0 °F 61% 30.28 in 10.0 mi North 12.7 mph - N/A   Mostly Cloudy
9:53 AM 9.0 °F -6.6 °F -4.0 °F 56% 30.31 in 10.0 mi NNW 12.7 mph - N/A   Overcast
10:53 AM 8.1 °F -7.0 °F -2.9 °F 61% 30.31 in 10.0 mi WNW 11.5 mph - N/A   Partly Cloudy
11:53 AM 10.0 °F -4.5 °F -5.1 °F 51% 30.32 in 10.0 mi NW 11.5 mph - N/A   Overcast
12:53 PM 10.0 °F -0.9 °F -4.0 °F 53% 30.31 in 10.0 mi NW 6.9 mph - N/A   Overcast
1:53 PM 10.0 °F -1.9 °F -0.0 °F 64% 30.30 in 2.5 mi West 8.1 mph - 0.00 in Snow Light Snow
1:58 PM 10.0 °F -2.9 °F 1.0 °F 67% 30.25 in 1.8 mi West 9.2 mph - 0.00 in Snow Light Snow
2:33 PM 9.0 °F -5.1 °F 3.9 °F 80% 30.27 in 0.8 mi West 10.4 mph - 0.00 in Snow Light Snow
2:53 PM 9.0 °F -5.1 °F 3.9 °F 80% 30.32 in 1.0 mi West 10.4 mph - 0.01 in Snow Light Snow
3:13 PM 9.0 °F -5.1 °F 3.9 °F 80% 30.29 in 0.8 mi West 10.4 mph - 0.00 in Snow Light Snow
3:26 PM 10.0 °F -2.9 °F 3.9 °F 76% 30.29 in 1.0 mi West 9.2 mph - 0.01 in Snow Light Snow
3:53 PM 9.0 °F -5.1 °F 3.9 °F 80% 30.33 in 1.2 mi West 10.4 mph - 0.01 in Snow Light Snow
4:30 PM 9.0 °F -5.1 °F 3.9 °F 80% 30.28 in 3.0 mi West 10.4 mph - 0.01 in Snow Light Snow
4:53 PM 9.0 °F -5.1 °F 1.9 °F 73% 30.35 in 10.0 mi West 10.4 mph - 0.01 in   Overcast
5:53 PM 9.0 °F -2.2 °F 1.9 °F 73% 30.33 in 10.0 mi WSW 6.9 mph - N/A   Scattered Clouds
6:53 PM 9.0 °F -4.2 °F 1.0 °F 70% 30.36 in 10.0 mi West 9.2 mph - N/A   Overcast
7:53 PM 9.0 °F -5.1 °F -0.9 °F 64% 30.38 in 10.0 mi West 10.4 mph - N/A   Overcast
8:53 PM 8.1 °F -4.3 °F -2.0 °F 64% 30.38 in 10.0 mi West 8.1 mph - N/A   Scattered Clouds
9:53 PM 8.1 °F -6.2 °F -2.9 °F 61% 30.39 in 10.0 mi WNW 10.4 mph - N/A   Overcast
10:53 PM 8.1 °F -5.3 °F -4.0 °F 58% 30.41 in 10.0 mi WNW 9.2 mph - N/A   Overcast
11:19 PM 5.0 °F -10.8 °F -0.9 °F 76% 30.35 in 10.0 mi NE 11.5 mph - N/A   Overcast
11:44 PM 5.0 °F -9.1 °F -0.0 °F 80% 30.35 in 2.5 mi NE 9.2 mph - 0.00 in Snow Light Snow
11:53 PM 5.0 °F -8.1 °F -0.0 °F 80% 30.40 in 3.0 mi NE 8.1 mph - 0.00 in Snow Light Snow